Flag for India Weather past 2 weeks in Kolkata, West Bengal, India

Now
84 °F

Haze.


Feels Like: 94 °F
Forecast: 80 / 101 °F
Wind: 14 mph from South

Location: Calcutta / Dum Dum

Current Time: Apr 18, 2015 at 11:03:54 PM

Latest Report: Apr 18, 2015 at 10:50 PM


Visibility: 2 mi

Pressure: 29.68 "Hg

Humidity: 79%

Dew point: 77 °F

Location of KolkataLocation

Historic Weather in Kolkata — Graph

°F

Kolkata temperature yesterday

Maximum temperature yesterday: 95 °F (at 2:50 PM)
Minimum temperature yesterday: 79 °F (at 10:50 PM)
Average temperature yesterday: 86 °F

Past Weeks' High & Low Weather Summary

 TemperatureHumidityPressure
High99 °F (Apr 10, 1:50 PM)100% (Apr 7, 7:50 PM)29.98 "Hg (Apr 7, 7:50 PM)
Low72 °F (Apr 7, 7:50 PM)29% (Apr 10, 1:50 PM)29.50 "Hg (Apr 4, 4:20 PM)
Average84 °F71%29.78 "Hg
* Reported Apr 3 9:50 PM — Apr 18 9:50 PM, Kolkata, Weather by CustomWeather, © 2015

Note: Actual official high and low records may vary slightly from our data, if they occured in-between our weather recording intervals... More about our weather records

Advertising

Kolkata weather history for previous 24 hours

 ConditionsComfort  
Time TempWeatherWind HumidityBarometerVisibility
9:50 PM
Sat, Apr 18
84 °FHaze.16 mph79%29.68 "Hg2 mi
9:20 PM84 °FHaze.16 mph79%29.68 "Hg2 mi
8:50 PM84 °FHaze.16 mph79%29.68 "Hg2 mi
8:20 PM84 °FHaze.16 mph74%29.68 "Hg2 mi
7:50 PM84 °FHaze.16 mph74%29.65 "Hg2 mi
7:20 PM86 °FHaze.16 mph66%29.62 "Hg2 mi
6:50 PM86 °FHaze.16 mph66%29.62 "Hg2 mi
6:20 PM88 °FHaze.16 mph62%29.59 "Hg2 mi
5:50 PM90 °FHaze.14 mph59%29.59 "Hg2 mi
5:20 PM91 °FHaze.12 mph52%29.59 "Hg2 mi
4:50 PM91 °FHaze.14 mph49%29.59 "Hg3 mi
4:20 PM93 °FHaze.14 mph47%29.59 "Hg3 mi
3:50 PM95 °FHaze.14 mph44%29.59 "Hg3 mi
3:20 PM95 °FHaze.14 mph44%29.59 "Hg3 mi
2:50 PM95 °FHaze.12 mph44%29.62 "Hg3 mi
2:20 PM95 °FHaze.14 mph47%29.62 "Hg3 mi
1:50 PM95 °FHaze.14 mph50%29.62 "Hg3 mi
1:20 PM95 °FHaze.14 mph50%29.65 "Hg3 mi
12:50 PM95 °FPassing clouds.15 mph50%29.65 "Hg4 mi
12:20 PM95 °FPassing clouds.12 mph50%29.68 "Hg4 mi
11:50 AM95 °FClear.13 mph47%29.71 "Hg4 mi
11:20 AM93 °FHaze.13 mph47%29.71 "Hg3 mi
10:20 AM91 °FHaze.14 mph52%29.74 "Hg3 mi
9:50 AM90 °FHaze.12 mph55%29.77 "Hg3 mi
9:20 AM88 °FHaze.13 mph62%29.77 "Hg2 mi
8:50 AM86 °FHaze.8 mph66%29.77 "Hg2 mi
8:20 AM84 °FScattered clouds.9 mph74%29.77 "Hg2 mi
7:50 AM84 °FScattered clouds.9 mph70%29.77 "Hg2 mi
7:20 AM82 °FHaze.No wind74%29.74 "Hg2 mi
6:50 AM81 °FFog.No wind84%29.74 "Hg2 mi
6:20 AM79 °FFog.3 mph84%29.71 "Hg1 mi
5:50 AM79 °FHaze.5 mph79%29.71 "Hg2 mi
5:20 AM81 °FHaze.8 mph74%29.68 "Hg2 mi
4:50 AM81 °FPassing clouds.13 mph74%29.68 "Hg2 mi
4:20 AM81 °FPassing clouds.10 mph74%29.68 "Hg2 mi
3:50 AM81 °FPassing clouds.9 mph70%29.65 "Hg2 mi
3:20 AM81 °FPassing clouds.9 mph74%29.65 "Hg2 mi
2:50 AM79 °FPassing clouds.7 mph74%29.68 "Hg2 mi
2:20 AM79 °FPassing clouds.7 mph74%29.68 "Hg2 mi
1:50 AM81 °FPassing clouds.8 mph70%29.68 "Hg2 mi
1:20 AM81 °FPassing clouds.6 mph70%29.68 "Hg2 mi
12:50 AM81 °FPartly cloudy.8 mph70%29.68 "Hg2 mi
12:20 AM81 °FPartly cloudy.8 mph70%29.74 "Hg2 mi
11:50 PM
Fri, Apr 17
81 °FPartly cloudy.8 mph70%29.74 "Hg2 mi
11:20 PM79 °FPartly cloudy.7 mph79%29.74 "Hg2 mi
Weather by CustomWeather, © 2015

See weather overviewHow to use our weather pages